When you browse on this site, cookies collect data to enhance your experience and personalize the content and advertising you see.
Visit our Privacy Policy to learn more. By continuing to use the site, you agree to this use of cookies and data.
  • în România
  • Lista ţărilor
  • Pe 7 zile
  • Temperatura apei
  • Hartă satelitară
  • Meteo pe hartă
  • Widget-uri
  • user-avatar
    Intrare

    Meteo pe oră la Hanoi

    Astăzi, 17 Ianuarie, Joi

    Timp Temperatura Precipitaţii Vânt Presiune Umiditate
    00:00 +12°C° 0 mm 2 m/s 766 mmHg 74%
    01:00 +12°C° 0 mm 2 m/s 766 mmHg 76%
    02:00 +12°C° 0 mm 2 m/s 766 mmHg 76%
    03:00 +12°C° 0 mm 2 m/s 766 mmHg 77%
    04:00 +12°C° 0 mm 2 m/s 765 mmHg 77%
    05:00 +12°C° 0 mm 2 m/s 766 mmHg 77%
    06:00 +12°C° 0 mm 2 m/s 766 mmHg 77%
    07:00 +11°C° 0 mm 3 m/s 767 mmHg 76%
    08:00 +12°C° 0 mm 3 m/s 767 mmHg 69%
    09:00 +13°C° 0 mm 3 m/s 767 mmHg 63%
    10:00 +16°C° 0 mm 3 m/s 767 mmHg 57%
    11:00 +17°C° 0 mm 2 m/s 767 mmHg 55%
    12:00 +18°C° 0 mm 2 m/s 766 mmHg 52%
    13:00 +18°C° 0 mm 2 m/s 766 mmHg 51%
    14:00 +19°C° 0 mm 2 m/s 766 mmHg 51%
    15:00 +19°C° 0 mm 2 m/s 765 mmHg 50%
    16:00 +20°C° 0 mm 2 m/s 765 mmHg 49%
    17:00 +20°C° 0 mm 1 m/s 765 mmHg 53%
    18:00 +20°C° 0 mm 1 m/s 765 mmHg 57%
    19:00 +19°C° 0 mm 1 m/s 765 mmHg 60%
    20:00 +18°C° 0 mm 1 m/s 765 mmHg 62%
    21:00 +18°C° 0 mm 1 m/s 766 mmHg 64%
    22:00 +16°C° 0 mm 1 m/s 766 mmHg 65%
    23:00 +16°C° 0 mm 1 m/s 766 mmHg 66%

    Mâine, 18 Ianuarie, Vineri

    Timp Temperatura Precipitaţii Vânt Presiune Umiditate
    00:00 +16°C° 0 mm 1 m/s 766 mmHg 67%
    01:00 +15°C° 0 mm 1 m/s 766 mmHg 68%
    02:00 +15°C° 0 mm 1 m/s 765 mmHg 69%
    03:00 +15°C° 0 mm 1 m/s 765 mmHg 70%
    04:00 +14°C° 0 mm 1 m/s 765 mmHg 70%
    05:00 +14°C° 0 mm 1 m/s 765 mmHg 71%
    06:00 +14°C° 0 mm 1 m/s 765 mmHg 71%
    07:00 +14°C° 0 mm 1 m/s 765 mmHg 72%
    08:00 +16°C° 0 mm 1 m/s 765 mmHg 67%
    09:00 +18°C° 0 mm 1 m/s 765 mmHg 62%
    10:00 +20°C° 0 mm 1 m/s 765 mmHg 58%
    11:00 +21°C° 0 mm 1 m/s 765 mmHg 56%
    12:00 +22°C° 0 mm 1 m/s 764 mmHg 54%
    13:00 +23°C° 0 mm 2 m/s 763 mmHg 53%
    14:00 +24°C° 0 mm 2 m/s 763 mmHg 53%
    15:00 +24°C° 0 mm 3 m/s 762 mmHg 54%
    16:00 +25°C° 0 mm 3 m/s 761 mmHg 54%
    17:00 +24°C° 0 mm 3 m/s 762 mmHg 60%
    18:00 +22°C° 0 mm 4 m/s 762 mmHg 65%
    19:00 +21°C° 0 mm 4 m/s 762 mmHg 71%
    20:00 +20°C° 0 mm 3 m/s 762 mmHg 74%
    21:00 +20°C° 0 mm 2 m/s 763 mmHg 77%
    22:00 +20°C° 0 mm 2 m/s 763 mmHg 80%
    23:00 +21°C° 0 mm 1 m/s 763 mmHg 81%

    Poimâine, 19 Ianuarie, Sâmbătă

    Timp Temperatura Precipitaţii Vânt Presiune Umiditate
    00:00 +21°C° 0 mm 1 m/s 763 mmHg 81%
    01:00 +19°C° 0 mm 0 m/s 763 mmHg 81%
    02:00 +19°C° 0 mm 0 m/s 762 mmHg 83%
    03:00 +20°C° 0 mm 1 m/s 762 mmHg 84%
    04:00 +20°C° 0 mm 1 m/s 762 mmHg 85%
    05:00 +18°C° 0 mm 0 m/s 762 mmHg 85%
    06:00 +18°C° 0 mm 0 m/s 762 mmHg 85%
    07:00 +18°C° 0 mm 0 m/s 762 mmHg 85%
    08:00 +19°C° 0 mm 0 m/s 763 mmHg 82%
    09:00 +20°C° 0 mm 0 m/s 763 mmHg 79%
    10:00 +20°C° 0 mm 0 m/s 763 mmHg 76%
    11:00 +24°C° 0 mm 1 m/s 762 mmHg 71%
    12:00 +25°C° 0 mm 1 m/s 762 mmHg 65%
    13:00 +26°C° 0 mm 1 m/s 761 mmHg 60%
    14:00 +27°C° 0 mm 1 m/s 760 mmHg 58%
    15:00 +27°C° 0 mm 2 m/s 760 mmHg 57%
    16:00 +27°C° 0 mm 2 m/s 759 mmHg 55%
    17:00 +27°C° 0 mm 2 m/s 760 mmHg 59%
    18:00 +26°C° 0 mm 2 m/s 760 mmHg 63%
    19:00 +25°C° 0 mm 2 m/s 760 mmHg 67%
    20:00 +25°C° 0 mm 2 m/s 761 mmHg 71%
    21:00 +24°C° 0 mm 2 m/s 761 mmHg 75%
    22:00 +23°C° 0 mm 2 m/s 762 mmHg 78%
    23:00 +23°C° 0 mm 2 m/s 761 mmHg 80%

    20 Ianuarie, Duminică

    Timp Temperatura Precipitaţii Vânt Presiune Umiditate
    00:00 +23°C° 0 mm 2 m/s 761 mmHg 82%
    01:00 +22°C° 0 mm 1 m/s 761 mmHg 84%
    02:00 +22°C° 0 mm 1 m/s 761 mmHg 84%
    03:00 +22°C° 0 mm 1 m/s 761 mmHg 85%
    04:00 +20°C° 0 mm 0 m/s 760 mmHg 85%
    05:00 +20°C° 0 mm 0 m/s 761 mmHg 86%
    06:00 +20°C° 0 mm 0 m/s 761 mmHg 86%
    07:00 +20°C° 0 mm 0 m/s 762 mmHg 87%
    08:00 +21°C° 0 mm 0 m/s 762 mmHg 83%
    09:00 +24°C° 0 mm 1 m/s 763 mmHg 79%
    10:00 +25°C° 0 mm 1 m/s 763 mmHg 76%
    11:00 +26°C° 0 mm 1 m/s 762 mmHg 71%
    12:00 +27°C° 0 mm 1 m/s 761 mmHg 66%
    13:00 +28°C° 0 mm 1 m/s 761 mmHg 62%
    14:00 +28°C° 0.1 mm 1 m/s 760 mmHg 61%
    15:00 +28°C° 0.1 mm 1 m/s 760 mmHg 61%
    16:00 +28°C° 0.1 mm 1 m/s 759 mmHg 61%
    17:00 +27°C° 0.1 mm 2 m/s 760 mmHg 66%
    18:00 +26°C° 0.1 mm 3 m/s 760 mmHg 71%
    19:00 +26°C° 0.1 mm 4 m/s 761 mmHg 76%
    20:00 +25°C° 0 mm 3 m/s 761 mmHg 79%
    21:00 +25°C° 0 mm 3 m/s 762 mmHg 81%
    22:00 +24°C° 0 mm 2 m/s 762 mmHg 84%
    23:00 +24°C° 0.2 mm 2 m/s 762 mmHg 84%

    21 Ianuarie, Luni

    Timp Temperatura Precipitaţii Vânt Presiune Umiditate
    00:00 +24°C° 0.2 mm 2 m/s 762 mmHg 83%
    01:00 +24°C° 0.2 mm 2 m/s 762 mmHg 83%
    02:00 +23°C° 0.5 mm 2 m/s 761 mmHg 85%
    03:00 +23°C° 0.5 mm 2 m/s 761 mmHg 86%
    04:00 +23°C° 0.5 mm 1 m/s 761 mmHg 88%
    05:00 +21°C° 0.4 mm 2 m/s 762 mmHg 86%
    06:00 +21°C° 0.4 mm 3 m/s 763 mmHg 85%
    07:00 +21°C° 0.4 mm 4 m/s 763 mmHg 83%
    08:00 +20°C° 0.3 mm 4 m/s 764 mmHg 81%
    09:00 +20°C° 0.3 mm 4 m/s 765 mmHg 79%
    10:00 +19°C° 0.3 mm 4 m/s 765 mmHg 77%
    11:00 +19°C° 0.4 mm 4 m/s 765 mmHg 77%
    12:00 +18°C° 0.4 mm 4 m/s 764 mmHg 77%
    13:00 +17°C° 0.4 mm 5 m/s 763 mmHg 77%
    14:00 +16°C° 0 mm 5 m/s 763 mmHg 76%
    15:00 +17°C° 0 mm 4 m/s 763 mmHg 75%
    16:00 +17°C° 0 mm 4 m/s 763 mmHg 74%
    17:00 +17°C° 0 mm 4 m/s 763 mmHg 74%
    18:00 +17°C° 0 mm 3 m/s 764 mmHg 73%
    19:00 +17°C° 0 mm 3 m/s 765 mmHg 73%
    20:00 +17°C° 0 mm 3 m/s 765 mmHg 73%
    21:00 +17°C° 0 mm 3 m/s 765 mmHg 74%
    22:00 +17°C° 0 mm 2 m/s 766 mmHg 74%
    23:00 +17°C° 0.1 mm 3 m/s 765 mmHg 74%

    22 Ianuarie, Marţi

    Timp Temperatura Precipitaţii Vânt Presiune Umiditate
    00:00 +16°C° 0.1 mm 3 m/s 765 mmHg 74%
    01:00 +16°C° 0.1 mm 3 m/s 765 mmHg 75%
    02:00 +16°C° 0.1 mm 3 m/s 765 mmHg 75%
    03:00 +16°C° 0.1 mm 3 m/s 765 mmHg 76%
    04:00 +16°C° 0.1 mm 3 m/s 765 mmHg 77%
    05:00 +16°C° 0.3 mm 3 m/s 765 mmHg 77%
    06:00 +16°C° 0.3 mm 3 m/s 766 mmHg 77%
    07:00 +16°C° 0.3 mm 3 m/s 766 mmHg 77%
    08:00 +16°C° 0.4 mm 3 m/s 767 mmHg 77%
    09:00 +16°C° 0.4 mm 3 m/s 767 mmHg 76%
    10:00 +14°C° 0.4 mm 3 m/s 768 mmHg 76%
    11:00 +16°C° 0 mm 3 m/s 767 mmHg 72%
    12:00 +17°C° 0 mm 3 m/s 766 mmHg 68%
    13:00 +18°C° 0 mm 3 m/s 765 mmHg 64%
    14:00 +18°C° 0 mm 3 m/s 765 mmHg 62%
    15:00 +19°C° 0 mm 2 m/s 764 mmHg 60%
    16:00 +20°C° 0 mm 2 m/s 764 mmHg 57%
    17:00 +19°C° 0 mm 2 m/s 764 mmHg 61%
    18:00 +20°C° 0 mm 1 m/s 764 mmHg 64%
    19:00 +19°C° 0 mm 1 m/s 764 mmHg 68%
    20:00 +19°C° 0 mm 1 m/s 765 mmHg 69%
    21:00 +19°C° 0 mm 1 m/s 765 mmHg 70%
    22:00 +18°C° 0 mm 1 m/s 765 mmHg 71%
    23:00 +18°C° 0 mm 1 m/s 765 mmHg 72%
    Arată mai mult